Location: Aldenham
(51.6667°N, 0.3500°W)
Time: 01:51:37
(UTC+00:00)

Cosmos 1975 Rocket - Pass Details

Date: 18 November 2025
Orbit: 598 x 626 km, 82.5° (Epoch: 13 December)

Event Time Altitude Azimuth Distance (km) Brightness Sun altitude
Rises 17:40:32 0° 344° (NNW) 2,873 6.5 -14.2°
Reaches altitude 10° 17:42:48 10° 339° (NNW) 1,968 5.7 -14.5°
Maximum altitude 17:46:58 46° 266° (W) 829 4.2 -15.1°
Drops below altitude 10° 17:51:07 10° 194° (SSW) 1,969 6.0 -15.8°
Sets 17:53:24 0° 188° (S) 2,874 6.7 -16.1°
